STARLINK-34074

Last updated on Mon Jun 23 2025 00:02:04 GMT+0000 (Coordinated Universal Time)

1 64099U 25110D 25172.98338888 .00023599 00000+0 59821-3 0 9994 2 64099 53.1590 167.2011 0003257 95.8601 264.2776 15.39613685 5834
UTC large
Height (km)
Speed (km/s)
/
Latitude / Longitude
Inclination (degrees)
Orbital Period (minutes)
Azimuth
Elevation
Range (km)
Doppler Factor

Next 0 passes for location: London (51.5072 / 0.1276)

Sorry there are no passes over London.